Year,Month,Day,Hour,Minute,Value (Times are PST for temperature in C)
2013,08,15,00,00,14.90
2013,08,15,00,03,14.90
2013,08,15,00,04,15.00
2013,08,15,00,05,15.00
2013,08,15,00,06,15.00
2013,08,15,00,07,15.00
2013,08,15,00,08,15.00
2013,08,15,00,09,15.00
2013,08,15,00,10,15.00
2013,08,15,00,11,15.10
2013,08,15,00,12,15.10
2013,08,15,00,13,15.10
2013,08,15,00,14,15.10
2013,08,15,00,15,15.10
2013,08,15,00,16,15.10
2013,08,15,00,17,15.10
2013,08,15,00,18,15.10
2013,08,15,00,19,15.10
2013,08,15,00,20,15.10
2013,08,15,00,21,15.10
2013,08,15,00,22,15.10
2013,08,15,00,23,15.10
2013,08,15,00,25,15.10
2013,08,15,00,26,15.10
2013,08,15,00,27,15.10
2013,08,15,00,28,15.20
2013,08,15,00,29,15.20
2013,08,15,00,30,15.20
2013,08,15,00,31,15.20
2013,08,15,00,32,15.20
2013,08,15,00,33,15.20
2013,08,15,00,35,15.20
2013,08,15,00,36,15.30
2013,08,15,00,37,15.30
2013,08,15,00,38,15.30
2013,08,15,00,39,15.30
2013,08,15,00,40,15.30
2013,08,15,00,41,15.30
2013,08,15,00,42,15.30
2013,08,15,00,44,15.30
2013,08,15,00,46,15.40
2013,08,15,00,47,15.40
2013,08,15,00,48,15.40
2013,08,15,00,49,15.40
2013,08,15,00,50,15.40
2013,08,15,00,52,15.40
2013,08,15,00,53,15.40
2013,08,15,00,54,15.40
2013,08,15,00,56,15.40
2013,08,15,00,57,15.40
2013,08,15,00,58,15.40
2013,08,15,00,59,15.40
2013,08,15,01,00,15.40
2013,08,15,01,01,15.40
2013,08,15,01,02,15.40
2013,08,15,01,03,15.40
2013,08,15,01,04,15.40
2013,08,15,01,05,15.40
2013,08,15,01,06,15.40
2013,08,15,01,07,15.30
2013,08,15,01,08,15.30
2013,08,15,01,09,15.30
2013,08,15,01,10,15.30
2013,08,15,01,11,15.30
2013,08,15,01,12,15.30
2013,08,15,01,13,15.30
2013,08,15,01,14,15.30
2013,08,15,01,15,15.20
2013,08,15,01,16,15.20
2013,08,15,01,17,15.20
2013,08,15,01,18,15.20
2013,08,15,01,19,15.10
2013,08,15,01,20,15.10
2013,08,15,01,21,15.10
2013,08,15,01,22,15.10
2013,08,15,01,23,15.10
2013,08,15,01,24,15.10
2013,08,15,01,25,15.10
2013,08,15,01,26,15.10
2013,08,15,01,27,15.10
2013,08,15,01,28,15.00
2013,08,15,01,29,15.00
2013,08,15,01,30,15.00
2013,08,15,01,31,15.00
2013,08,15,01,32,15.00
2013,08,15,01,33,15.00
2013,08,15,01,35,15.00
2013,08,15,01,36,15.00
2013,08,15,01,37,15.10
2013,08,15,01,38,15.10
2013,08,15,01,40,15.10
2013,08,15,01,41,15.00
2013,08,15,01,42,15.00
2013,08,15,01,43,15.10
2013,08,15,01,45,15.10
2013,08,15,01,46,15.00
2013,08,15,01,47,15.00
2013,08,15,01,49,15.00
2013,08,15,01,51,15.00
2013,08,15,01,52,15.00
2013,08,15,01,54,15.00
2013,08,15,01,56,14.90
2013,08,15,01,57,14.90
2013,08,15,01,59,14.90
2013,08,15,02,01,14.90
2013,08,15,02,02,14.90
2013,08,15,02,04,14.90
2013,08,15,02,06,14.90
2013,08,15,02,07,14.80
2013,08,15,02,09,14.80
2013,08,15,02,11,14.70
2013,08,15,02,12,14.70
2013,08,15,02,14,14.70
2013,08,15,02,15,14.60
2013,08,15,02,16,14.60
2013,08,15,02,17,14.50
2013,08,15,02,19,14.50
2013,08,15,02,21,14.40
2013,08,15,02,23,14.30
2013,08,15,02,24,14.30
2013,08,15,02,25,14.30
2013,08,15,02,27,14.30
2013,08,15,02,28,14.30
2013,08,15,02,29,14.30
2013,08,15,02,30,14.20
2013,08,15,02,32,14.20
2013,08,15,02,33,14.20
2013,08,15,02,34,14.20
2013,08,15,02,35,14.20
2013,08,15,02,36,14.20
2013,08,15,02,38,14.20
2013,08,15,02,39,14.20
2013,08,15,02,40,14.20
2013,08,15,02,41,14.20
2013,08,15,02,43,14.10
2013,08,15,02,44,14.10
2013,08,15,02,46,14.10
2013,08,15,02,48,14.10
2013,08,15,02,49,14.00
2013,08,15,02,50,13.90
2013,08,15,02,51,13.90
2013,08,15,02,53,13.90
2013,08,15,02,54,13.80
2013,08,15,02,55,13.80
2013,08,15,02,56,13.70
2013,08,15,02,58,13.70
2013,08,15,02,59,13.60
2013,08,15,03,00,13.60
2013,08,15,03,01,13.60
2013,08,15,03,03,13.60
2013,08,15,03,04,13.50
2013,08,15,03,05,13.50
2013,08,15,03,07,13.40
2013,08,15,03,08,13.40
2013,08,15,03,09,13.40
2013,08,15,03,11,13.30
2013,08,15,03,12,13.30
2013,08,15,03,13,13.30
2013,08,15,03,14,13.30
2013,08,15,03,15,13.30
2013,08,15,03,17,13.30
2013,08,15,03,18,13.30
2013,08,15,03,19,13.30
2013,08,15,03,21,13.20
2013,08,15,03,22,13.20
2013,08,15,03,23,13.20
2013,08,15,03,24,13.20
2013,08,15,03,26,13.20
2013,08,15,03,27,13.20
2013,08,15,03,28,13.20
2013,08,15,03,29,13.20
2013,08,15,03,30,13.20
2013,08,15,03,31,13.20
2013,08,15,03,32,13.20
2013,08,15,03,33,13.20
2013,08,15,03,34,13.20
2013,08,15,03,35,13.20
2013,08,15,03,36,13.20
2013,08,15,03,37,13.20
2013,08,15,03,38,13.20
2013,08,15,03,39,13.20
2013,08,15,03,40,13.20
2013,08,15,03,41,13.20
2013,08,15,03,42,13.20
2013,08,15,03,43,13.20
2013,08,15,03,44,13.20
2013,08,15,03,45,13.20
2013,08,15,03,46,13.20
2013,08,15,03,47,13.20
2013,08,15,03,48,13.20
2013,08,15,03,49,13.20
2013,08,15,03,50,13.20
2013,08,15,03,51,13.20
2013,08,15,03,52,13.20
2013,08,15,03,53,13.20
2013,08,15,03,54,13.20
2013,08,15,03,55,13.20
2013,08,15,03,56,13.20
2013,08,15,03,57,13.20
2013,08,15,03,58,13.20
2013,08,15,03,59,13.20
2013,08,15,04,00,13.20
2013,08,15,04,01,13.20
2013,08,15,04,02,13.20
2013,08,15,04,03,13.20
2013,08,15,04,05,13.20
2013,08,15,04,06,13.20
2013,08,15,04,07,13.20
2013,08,15,04,08,13.10
2013,08,15,04,09,13.20
2013,08,15,04,10,13.20
2013,08,15,04,11,13.10
2013,08,15,04,12,13.10
2013,08,15,04,13,13.10
2013,08,15,04,14,13.10
2013,08,15,04,15,13.10
2013,08,15,04,16,13.10
2013,08,15,04,17,13.10
2013,08,15,04,18,13.10
2013,08,15,04,19,13.10
2013,08,15,04,20,13.10
2013,08,15,04,22,13.10
2013,08,15,04,23,13.20
2013,08,15,04,24,13.20
2013,08,15,04,25,13.20
2013,08,15,04,26,13.20
2013,08,15,04,27,13.20
2013,08,15,04,28,13.20
2013,08,15,04,29,13.20
2013,08,15,04,30,13.20
2013,08,15,04,31,13.20
2013,08,15,04,32,13.30
2013,08,15,04,33,13.30
2013,08,15,04,34,13.30
2013,08,15,04,36,13.30
2013,08,15,04,37,13.30
2013,08,15,04,38,13.30
2013,08,15,04,39,13.30
2013,08,15,04,40,13.30
2013,08,15,04,41,13.30
2013,08,15,04,42,13.30
2013,08,15,04,43,13.30
2013,08,15,04,45,13.40
2013,08,15,04,46,13.40
2013,08,15,04,47,13.40
2013,08,15,04,49,13.40
2013,08,15,04,50,13.40
2013,08,15,04,51,13.40
2013,08,15,04,52,13.50
2013,08,15,04,54,13.50
2013,08,15,04,55,13.50
2013,08,15,04,56,13.50
2013,08,15,04,57,13.60
2013,08,15,04,58,13.50
2013,08,15,05,00,13.60
2013,08,15,05,01,13.60
2013,08,15,05,02,13.60
2013,08,15,05,03,13.60
2013,08,15,05,05,13.60
2013,08,15,05,06,13.60
2013,08,15,05,07,13.60
2013,08,15,05,08,13.60
2013,08,15,05,09,13.60
2013,08,15,05,11,13.60
2013,08,15,05,12,13.60
2013,08,15,05,13,13.60
2013,08,15,05,14,13.60
2013,08,15,05,16,13.60
2013,08,15,05,17,13.60
2013,08,15,05,18,13.60
2013,08,15,05,19,13.60
2013,08,15,05,20,13.50
2013,08,15,05,21,13.50
2013,08,15,05,22,13.50
2013,08,15,05,23,13.50
2013,08,15,05,24,13.50
2013,08,15,05,26,13.50
2013,08,15,05,27,13.50
2013,08,15,05,29,13.50
2013,08,15,05,30,13.50
2013,08,15,05,31,13.50
2013,08,15,05,32,13.50
2013,08,15,05,33,13.60
2013,08,15,05,34,13.60
2013,08,15,05,35,13.60
2013,08,15,05,36,13.60
2013,08,15,05,37,13.60
2013,08,15,05,38,13.70
2013,08,15,05,39,13.70
2013,08,15,05,40,13.70
2013,08,15,05,42,13.70
2013,08,15,05,43,13.80
2013,08,15,05,44,13.80
2013,08,15,05,45,13.80
2013,08,15,05,46,13.80
2013,08,15,05,47,13.80
2013,08,15,05,48,13.80
2013,08,15,05,49,13.80
2013,08,15,05,50,13.90
2013,08,15,05,51,13.90
2013,08,15,05,52,13.90
2013,08,15,05,53,14.00
2013,08,15,05,54,14.10
2013,08,15,05,55,14.10
2013,08,15,05,56,14.10
2013,08,15,05,57,14.20
2013,08,15,05,58,14.20
2013,08,15,05,59,14.20
2013,08,15,06,00,14.20
2013,08,15,06,01,14.30
2013,08,15,06,02,14.30
2013,08,15,06,03,14.30
2013,08,15,06,04,14.30
2013,08,15,06,05,14.30
2013,08,15,06,06,14.40
2013,08,15,06,07,14.40
2013,08,15,06,08,14.40
2013,08,15,06,09,14.40
2013,08,15,06,11,14.50
2013,08,15,06,12,14.50
2013,08,15,06,13,14.60
2013,08,15,06,14,14.60
2013,08,15,06,15,14.60
2013,08,15,06,16,14.60
2013,08,15,06,17,14.60
2013,08,15,06,18,14.70
2013,08,15,06,20,14.70
2013,08,15,06,21,14.70
2013,08,15,06,22,14.70
2013,08,15,06,23,14.80
2013,08,15,06,24,14.80
2013,08,15,06,25,14.80
2013,08,15,06,26,14.80
2013,08,15,06,27,14.80
2013,08,15,06,28,14.80
2013,08,15,06,29,14.80
2013,08,15,06,30,14.80
2013,08,15,06,31,14.80
2013,08,15,06,32,14.80
2013,08,15,06,34,14.80
2013,08,15,06,35,14.80
2013,08,15,06,36,14.80
2013,08,15,06,37,14.80
2013,08,15,06,38,14.80
2013,08,15,06,39,14.80
2013,08,15,06,40,14.80
2013,08,15,06,41,14.80
2013,08,15,06,42,14.80
2013,08,15,06,43,14.70
2013,08,15,06,45,14.70
2013,08,15,06,46,14.70
2013,08,15,06,47,14.70
2013,08,15,06,49,14.60
2013,08,15,06,50,14.60
2013,08,15,06,51,14.40
2013,08,15,06,52,14.30
2013,08,15,06,53,14.30
2013,08,15,06,55,14.20
2013,08,15,06,56,14.10
2013,08,15,06,57,14.10
2013,08,15,06,59,14.10
2013,08,15,07,00,14.00
2013,08,15,07,01,13.90
2013,08,15,07,02,13.90
2013,08,15,07,03,13.90
2013,08,15,07,04,13.90
2013,08,15,07,05,13.90
2013,08,15,07,06,13.90
2013,08,15,07,08,13.90
2013,08,15,07,09,13.90
2013,08,15,07,10,13.90
2013,08,15,07,11,13.90
2013,08,15,07,12,13.90
2013,08,15,07,13,13.90
2013,08,15,07,14,13.90
2013,08,15,07,15,13.90
2013,08,15,07,17,13.90
2013,08,15,07,18,13.90
2013,08,15,07,19,13.90
2013,08,15,07,20,13.90
2013,08,15,07,22,13.90
2013,08,15,07,23,13.90
2013,08,15,07,24,13.90
2013,08,15,07,25,13.90
2013,08,15,07,26,13.90
2013,08,15,07,27,13.90
2013,08,15,07,28,13.90
2013,08,15,07,29,13.90
2013,08,15,07,31,14.00
2013,08,15,07,32,14.00
2013,08,15,07,33,14.10
2013,08,15,07,34,14.10
2013,08,15,07,36,14.10
2013,08,15,07,37,14.10
2013,08,15,07,38,14.10
2013,08,15,07,40,14.10
2013,08,15,07,41,14.10
2013,08,15,07,42,14.10
2013,08,15,07,44,14.20
2013,08,15,07,46,14.20
2013,08,15,07,47,14.20
2013,08,15,07,49,14.20
2013,08,15,07,51,14.30
2013,08,15,07,52,14.30
2013,08,15,07,54,14.30
2013,08,15,07,55,14.30
2013,08,15,07,56,14.40
2013,08,15,07,57,14.40
2013,08,15,07,58,14.40
2013,08,15,07,59,14.40
2013,08,15,08,01,14.40
2013,08,15,08,02,14.40
2013,08,15,08,03,14.50
2013,08,15,08,04,14.50
2013,08,15,08,06,14.50
2013,08,15,08,07,14.50
2013,08,15,08,08,14.50
2013,08,15,08,09,14.50
2013,08,15,08,11,14.50
2013,08,15,08,12,14.40
2013,08,15,08,13,14.30
2013,08,15,08,14,14.30
2013,08,15,08,16,14.20
2013,08,15,08,17,14.20
2013,08,15,08,18,14.10
2013,08,15,08,19,14.10
2013,08,15,08,21,14.00
2013,08,15,08,22,14.00
2013,08,15,08,23,14.10
2013,08,15,08,24,14.10
2013,08,15,08,27,14.10
2013,08,15,08,28,14.10
2013,08,15,08,29,14.10
2013,08,15,08,30,14.00
2013,08,15,08,31,14.10
2013,08,15,08,33,14.00
2013,08,15,08,34,14.00
2013,08,15,08,35,13.90
2013,08,15,08,36,13.90
2013,08,15,08,38,13.90
2013,08,15,08,39,13.80
2013,08,15,08,40,13.80
2013,08,15,08,41,13.80
2013,08,15,08,43,13.80
2013,08,15,08,44,13.80
2013,08,15,08,45,13.80
2013,08,15,08,46,13.90
2013,08,15,08,47,13.90
2013,08,15,08,48,13.90
2013,08,15,08,49,13.90
2013,08,15,08,50,13.90
2013,08,15,08,51,13.90
2013,08,15,08,53,14.00
2013,08,15,08,54,14.00
2013,08,15,08,55,14.10
2013,08,15,08,56,14.10
2013,08,15,08,57,14.10
2013,08,15,08,58,14.10
2013,08,15,08,59,14.10
2013,08,15,09,00,14.10
2013,08,15,09,01,14.10
2013,08,15,09,02,14.10
2013,08,15,09,03,14.10
2013,08,15,09,04,14.20
2013,08,15,09,05,14.20
2013,08,15,09,06,14.20
2013,08,15,09,07,14.20
2013,08,15,09,08,14.20
2013,08,15,09,09,14.20
2013,08,15,09,10,14.20
2013,08,15,09,11,14.20
2013,08,15,09,12,14.30
2013,08,15,09,13,14.30
2013,08,15,09,14,14.30
2013,08,15,09,15,14.40
2013,08,15,09,16,14.40
2013,08,15,09,17,14.40
2013,08,15,09,19,14.50
2013,08,15,09,20,14.60
2013,08,15,09,21,14.60
2013,08,15,09,22,14.60
2013,08,15,09,23,14.70
2013,08,15,09,24,14.70
2013,08,15,09,25,14.80
2013,08,15,09,26,14.80
2013,08,15,09,27,14.80
2013,08,15,09,29,14.80
2013,08,15,09,30,14.90
2013,08,15,09,31,14.90
2013,08,15,09,32,14.90
2013,08,15,09,33,15.00
2013,08,15,09,35,15.10
2013,08,15,09,36,15.10
2013,08,15,09,37,15.10
2013,08,15,09,38,15.20
2013,08,15,09,39,15.20
2013,08,15,09,40,15.20
2013,08,15,09,41,15.20
2013,08,15,09,42,15.30
2013,08,15,09,44,15.30
2013,08,15,09,45,15.30
2013,08,15,09,46,15.30
2013,08,15,09,47,15.40
2013,08,15,09,48,15.40
2013,08,15,09,50,15.50
2013,08,15,09,51,15.50
2013,08,15,09,52,15.60
2013,08,15,09,53,15.60
2013,08,15,09,55,15.60
2013,08,15,09,56,15.70
2013,08,15,09,57,15.70
2013,08,15,09,59,15.80
2013,08,15,10,00,15.80
2013,08,15,10,01,15.80
2013,08,15,10,02,15.90
2013,08,15,10,03,15.90
2013,08,15,10,04,15.90
2013,08,15,10,06,16.00
2013,08,15,10,07,16.10
2013,08,15,10,08,16.10
2013,08,15,10,09,16.10
2013,08,15,10,11,16.20
2013,08,15,10,12,16.20
2013,08,15,10,13,16.30
2013,08,15,10,15,16.30
2013,08,15,10,16,16.30
2013,08,15,10,17,16.30
2013,08,15,10,18,16.40
2013,08,15,10,20,16.40
2013,08,15,10,21,16.50
2013,08,15,10,22,16.60
2013,08,15,10,23,16.70
2013,08,15,10,25,16.70
2013,08,15,10,26,16.70
2013,08,15,10,27,16.80
2013,08,15,10,28,16.80
2013,08,15,10,30,16.80
2013,08,15,10,31,16.80
2013,08,15,10,32,16.80
2013,08,15,10,34,16.90
2013,08,15,10,35,16.90
2013,08,15,10,36,16.90
2013,08,15,10,38,17.00
2013,08,15,10,39,17.10
2013,08,15,10,41,17.20
2013,08,15,10,42,17.30
2013,08,15,10,44,17.30
2013,08,15,10,45,17.30
2013,08,15,10,46,17.40
2013,08,15,10,48,17.40
2013,08,15,10,49,17.40
2013,08,15,10,50,17.50
2013,08,15,10,51,17.50
2013,08,15,10,52,17.60
2013,08,15,10,54,17.60
2013,08,15,10,56,17.70
2013,08,15,10,57,17.80
2013,08,15,10,59,17.80
2013,08,15,11,00,17.80
2013,08,15,11,01,17.80
2013,08,15,11,02,17.90
2013,08,15,11,04,17.90
2013,08,15,11,06,17.90
2013,08,15,11,08,18.00
2013,08,15,11,09,18.00
2013,08,15,11,10,18.10
2013,08,15,11,11,18.10
2013,08,15,11,13,18.10
2013,08,15,11,14,18.10
2013,08,15,11,16,18.10
2013,08,15,11,17,18.10
2013,08,15,11,19,18.10
2013,08,15,11,21,18.10
2013,08,15,11,22,18.10
2013,08,15,11,24,18.10
2013,08,15,11,26,18.00
2013,08,15,11,28,17.90
2013,08,15,11,29,17.90
2013,08,15,11,30,17.90
2013,08,15,11,31,17.90
2013,08,15,11,32,17.90
2013,08,15,11,33,17.90
2013,08,15,11,34,17.90
2013,08,15,11,35,17.90
2013,08,15,11,36,17.80
2013,08,15,11,37,17.80
2013,08,15,11,39,17.80
2013,08,15,11,40,17.80
2013,08,15,11,41,17.70
2013,08,15,11,42,17.80
2013,08,15,11,44,17.80
2013,08,15,11,45,17.80
2013,08,15,11,46,17.80
2013,08,15,11,47,17.80
2013,08,15,11,48,17.80
2013,08,15,11,49,17.80
2013,08,15,11,50,17.90
2013,08,15,11,51,17.80
2013,08,15,11,52,17.80
2013,08,15,11,53,17.80
2013,08,15,11,54,17.80
2013,08,15,11,55,17.80
2013,08,15,11,56,17.70
2013,08,15,11,57,17.70
2013,08,15,11,58,17.70
2013,08,15,11,59,17.70
2013,08,15,12,00,17.70
2013,08,15,12,01,17.70
2013,08,15,12,03,17.70
2013,08,15,12,04,17.80
2013,08,15,12,05,17.80
2013,08,15,12,06,17.80
2013,08,15,12,07,17.90
2013,08,15,12,08,17.90
2013,08,15,12,09,18.00
2013,08,15,12,10,18.10
2013,08,15,12,11,18.20
2013,08,15,12,12,18.30
2013,08,15,12,13,18.30
2013,08,15,12,14,18.40
2013,08,15,12,15,18.50
2013,08,15,12,16,18.60
2013,08,15,12,17,18.60
2013,08,15,12,18,18.60
2013,08,15,12,19,18.70
2013,08,15,12,20,18.70
2013,08,15,12,21,18.70
2013,08,15,12,23,18.80
2013,08,15,12,24,18.80
2013,08,15,12,25,18.80
2013,08,15,12,26,18.80
2013,08,15,12,27,18.80
2013,08,15,12,28,18.90
2013,08,15,12,29,19.00
2013,08,15,12,30,19.10
2013,08,15,12,31,19.10
2013,08,15,12,33,19.20
2013,08,15,12,34,19.20
2013,08,15,12,35,19.20
2013,08,15,12,36,19.20
2013,08,15,12,37,19.30
2013,08,15,12,39,19.30
2013,08,15,12,40,19.30
2013,08,15,12,41,19.40
2013,08,15,12,42,19.40
2013,08,15,12,44,19.40
2013,08,15,12,45,19.40
2013,08,15,12,46,19.40
2013,08,15,12,48,19.40
2013,08,15,12,49,19.40
2013,08,15,12,50,19.30
2013,08,15,12,51,19.30
2013,08,15,12,53,19.30
2013,08,15,12,54,19.20
2013,08,15,12,55,19.00
2013,08,15,12,56,18.90
2013,08,15,12,58,18.90
2013,08,15,12,59,18.80
2013,08,15,13,00,18.80
2013,08,15,13,01,18.90
2013,08,15,13,03,18.90
2013,08,15,13,04,18.90
2013,08,15,13,05,19.00
2013,08,15,13,06,19.10
2013,08,15,13,08,19.10
2013,08,15,13,09,19.00
2013,08,15,13,10,19.00
2013,08,15,13,11,19.00
2013,08,15,13,12,19.00
2013,08,15,13,13,19.00
2013,08,15,13,14,19.00
2013,08,15,13,15,19.00
2013,08,15,13,16,19.00
2013,08,15,13,17,19.00
2013,08,15,13,18,18.90
2013,08,15,13,20,18.90
2013,08,15,13,21,18.80
2013,08,15,13,22,18.80
2013,08,15,13,23,18.80
2013,08,15,13,24,18.70
2013,08,15,13,26,18.70
2013,08,15,13,27,18.70
2013,08,15,13,29,18.70
2013,08,15,13,30,18.60
2013,08,15,13,31,18.60
2013,08,15,13,32,18.60
2013,08,15,13,33,18.60
2013,08,15,13,34,18.50
2013,08,15,13,35,18.50
2013,08,15,13,36,18.40
2013,08,15,13,37,18.50
2013,08,15,13,38,18.50
2013,08,15,13,39,18.60
2013,08,15,13,40,18.60
2013,08,15,13,41,18.60
2013,08,15,13,42,18.70
2013,08,15,13,43,18.70
2013,08,15,13,44,18.70
2013,08,15,13,46,18.80
2013,08,15,13,47,18.80
2013,08,15,13,48,18.90
2013,08,15,13,49,18.90
2013,08,15,13,51,18.90
2013,08,15,13,52,19.00
2013,08,15,13,53,19.00
2013,08,15,13,54,19.10
2013,08,15,13,55,19.10
2013,08,15,13,56,19.10
2013,08,15,13,57,19.20
2013,08,15,13,58,19.20
2013,08,15,13,59,19.20
2013,08,15,14,01,19.20
2013,08,15,14,02,19.20
2013,08,15,14,03,19.20
2013,08,15,14,04,19.20
2013,08,15,14,05,19.20
2013,08,15,14,06,19.20
2013,08,15,14,07,19.20
2013,08,15,14,08,19.20
2013,08,15,14,09,19.20
2013,08,15,14,10,19.20
2013,08,15,14,11,19.20
2013,08,15,14,12,19.20
2013,08,15,14,13,19.20
2013,08,15,14,14,19.10
2013,08,15,14,15,19.10
2013,08,15,14,17,19.10
2013,08,15,14,18,19.10
2013,08,15,14,19,19.10
2013,08,15,14,20,19.10
2013,08,15,14,21,19.10
2013,08,15,14,22,19.10
2013,08,15,14,23,19.10
2013,08,15,14,24,19.10
2013,08,15,14,25,19.10
2013,08,15,14,26,19.10
2013,08,15,14,27,19.10
2013,08,15,14,28,19.10
2013,08,15,14,29,19.10
2013,08,15,14,30,19.10
2013,08,15,14,31,19.00
2013,08,15,14,32,18.90
2013,08,15,14,33,18.90
2013,08,15,14,34,18.80
2013,08,15,14,35,18.80
2013,08,15,14,37,18.70
2013,08,15,14,38,18.60
2013,08,15,14,39,18.60
2013,08,15,14,40,18.50
2013,08,15,14,41,18.50
2013,08,15,14,42,18.40
2013,08,15,14,43,18.30
2013,08,15,14,44,18.30
2013,08,15,14,45,18.20
2013,08,15,14,46,18.20
2013,08,15,14,47,18.10
2013,08,15,14,48,18.10
2013,08,15,14,49,17.90
2013,08,15,14,50,17.80
2013,08,15,14,51,17.80
2013,08,15,14,52,17.70
2013,08,15,14,53,17.70
2013,08,15,14,54,17.60
2013,08,15,14,55,17.60
2013,08,15,14,56,17.50
2013,08,15,14,57,17.50
2013,08,15,14,58,17.50
2013,08,15,14,59,17.40
2013,08,15,15,00,17.40
2013,08,15,15,01,17.40
2013,08,15,15,02,17.40
2013,08,15,15,03,17.40
2013,08,15,15,04,17.40
2013,08,15,15,06,17.40
2013,08,15,15,07,17.40
2013,08,15,15,08,17.40
2013,08,15,15,09,17.40
2013,08,15,15,10,17.40
2013,08,15,15,11,17.40
2013,08,15,15,12,17.40
2013,08,15,15,13,17.40
2013,08,15,15,14,17.40
2013,08,15,15,15,17.40
2013,08,15,15,16,17.30
2013,08,15,15,17,17.30
2013,08,15,15,18,17.30
2013,08,15,15,19,17.30
2013,08,15,15,20,17.30
2013,08,15,15,21,17.30
2013,08,15,15,22,17.30
2013,08,15,15,23,17.30
2013,08,15,15,24,17.20
2013,08,15,15,25,17.20
2013,08,15,15,26,17.20
2013,08,15,15,27,17.30
2013,08,15,15,28,17.30
2013,08,15,15,29,17.30
2013,08,15,15,30,17.30
2013,08,15,15,31,17.30
2013,08,15,15,32,17.30
2013,08,15,15,34,17.30
2013,08,15,15,35,17.30
2013,08,15,15,36,17.30
2013,08,15,15,37,17.30
2013,08,15,15,38,17.30
2013,08,15,15,39,17.40
2013,08,15,15,40,17.40
2013,08,15,15,41,17.40
2013,08,15,15,42,17.40
2013,08,15,15,43,17.40
2013,08,15,15,44,17.40
2013,08,15,15,45,17.40
2013,08,15,15,46,17.40
2013,08,15,15,47,17.40
2013,08,15,15,48,17.40
2013,08,15,15,49,17.40
2013,08,15,15,50,17.40
2013,08,15,15,51,17.40
2013,08,15,15,52,17.40
2013,08,15,15,53,17.40
2013,08,15,15,54,17.50
2013,08,15,15,55,17.50
2013,08,15,15,56,17.50
2013,08,15,15,57,17.50
2013,08,15,15,58,17.60
2013,08,15,15,59,17.60
2013,08,15,16,00,17.60
2013,08,15,16,02,17.70
2013,08,15,16,03,17.70
2013,08,15,16,04,17.70
2013,08,15,16,05,17.70
2013,08,15,16,07,17.60
2013,08,15,16,08,17.50
2013,08,15,16,09,17.40
2013,08,15,16,10,17.40
2013,08,15,16,12,17.40
2013,08,15,16,13,17.40
2013,08,15,16,14,17.40
2013,08,15,16,15,17.40
2013,08,15,16,17,17.40
2013,08,15,16,18,17.40
2013,08,15,16,19,17.40
2013,08,15,16,20,17.40
2013,08,15,16,22,17.40
2013,08,15,16,23,17.40
2013,08,15,16,24,17.40
2013,08,15,16,25,17.40
2013,08,15,16,26,17.40
2013,08,15,16,28,17.40
2013,08,15,16,29,17.40
2013,08,15,16,30,17.40
2013,08,15,16,31,17.40
2013,08,15,16,33,17.40
2013,08,15,16,34,17.40
2013,08,15,16,35,17.50
2013,08,15,16,37,17.60
2013,08,15,16,38,17.70
2013,08,15,16,39,17.70
2013,08,15,16,40,17.70
2013,08,15,16,41,17.70
2013,08,15,16,42,17.70
2013,08,15,16,43,17.60
2013,08,15,16,44,17.40
2013,08,15,16,46,17.20
2013,08,15,16,47,17.10
2013,08,15,16,48,17.00
2013,08,15,16,49,16.90
2013,08,15,16,51,16.90
2013,08,15,16,52,16.90
2013,08,15,16,53,16.90
2013,08,15,16,54,16.90
2013,08,15,16,55,16.90
2013,08,15,16,56,16.90
2013,08,15,16,57,16.90
2013,08,15,16,58,16.90
2013,08,15,16,59,16.90
2013,08,15,17,00,16.90
2013,08,15,17,01,17.00
2013,08,15,17,02,17.10
2013,08,15,17,03,17.10
2013,08,15,17,04,17.10
2013,08,15,17,05,17.20
2013,08,15,17,06,17.20
2013,08,15,17,07,17.30
2013,08,15,17,08,17.30
2013,08,15,17,09,17.30
2013,08,15,17,10,17.30
2013,08,15,17,11,17.30
2013,08,15,17,12,17.40
2013,08,15,17,13,17.40
2013,08,15,17,14,17.40
2013,08,15,17,15,17.40
2013,08,15,17,16,17.40
2013,08,15,17,17,17.40
2013,08,15,17,18,17.40
2013,08,15,17,19,17.40
2013,08,15,17,20,17.50
2013,08,15,17,21,17.50
2013,08,15,17,22,17.40
2013,08,15,17,23,17.40
2013,08,15,17,24,17.40
2013,08,15,17,25,17.40
2013,08,15,17,27,17.30
2013,08,15,17,28,17.30
2013,08,15,17,29,17.30
2013,08,15,17,30,17.20
2013,08,15,17,32,17.20
2013,08,15,17,33,17.20
2013,08,15,17,34,17.00
2013,08,15,17,35,17.00
2013,08,15,17,36,16.90
2013,08,15,17,38,16.90
2013,08,15,17,39,16.90
2013,08,15,17,40,16.90
2013,08,15,17,41,16.90
2013,08,15,17,43,16.90
2013,08,15,17,44,16.90
2013,08,15,17,45,16.90
2013,08,15,17,46,16.90
2013,08,15,17,48,16.90
2013,08,15,17,49,16.90
2013,08,15,17,50,17.00
2013,08,15,17,51,17.00
2013,08,15,17,52,17.00
2013,08,15,17,54,17.00
2013,08,15,17,55,16.90
2013,08,15,17,56,16.90
2013,08,15,17,57,16.90
2013,08,15,17,58,16.90
2013,08,15,17,59,16.90
2013,08,15,18,00,16.80
2013,08,15,18,01,16.80
2013,08,15,18,03,16.80
2013,08,15,18,04,16.80
2013,08,15,18,05,16.90
2013,08,15,18,06,16.90
2013,08,15,18,08,16.90
2013,08,15,18,09,16.90
2013,08,15,18,10,16.90
2013,08,15,18,11,17.00
2013,08,15,18,12,17.10
2013,08,15,18,14,17.10
2013,08,15,18,15,17.10
2013,08,15,18,16,17.10
2013,08,15,18,18,17.10
2013,08,15,18,19,17.20
2013,08,15,18,20,17.20
2013,08,15,18,21,17.20
2013,08,15,18,22,17.20
2013,08,15,18,23,17.20
2013,08,15,18,24,17.20
2013,08,15,18,26,17.20
2013,08,15,18,27,17.20
2013,08,15,18,28,17.20
2013,08,15,18,29,17.20
2013,08,15,18,31,17.20
2013,08,15,18,32,17.20
2013,08,15,18,33,17.20
2013,08,15,18,34,17.20
2013,08,15,18,36,17.10
2013,08,15,18,37,17.10
2013,08,15,18,38,17.10
2013,08,15,18,39,17.10
2013,08,15,18,42,17.10
2013,08,15,18,43,17.10
2013,08,15,18,44,17.20
2013,08,15,18,46,17.20
2013,08,15,18,48,17.20
2013,08,15,18,49,17.20
2013,08,15,18,52,17.20
2013,08,15,18,53,17.30
2013,08,15,18,54,17.30
2013,08,15,18,56,17.30
2013,08,15,18,58,17.30
2013,08,15,18,59,17.40
2013,08,15,19,02,17.40
2013,08,15,19,03,17.40
2013,08,15,19,04,17.40
2013,08,15,19,05,17.50
2013,08,15,19,07,17.50
2013,08,15,19,08,17.60
2013,08,15,19,09,17.60
2013,08,15,19,12,17.60
2013,08,15,19,13,17.70
2013,08,15,19,14,17.70
2013,08,15,19,16,17.70
2013,08,15,19,18,17.80
2013,08,15,19,19,17.80
2013,08,15,19,21,17.80
2013,08,15,19,23,17.80
2013,08,15,19,24,17.80
2013,08,15,19,26,17.80
2013,08,15,19,27,17.80
2013,08,15,19,28,17.80
2013,08,15,19,29,17.90
2013,08,15,19,31,17.90
2013,08,15,19,32,17.90
2013,08,15,19,33,17.90
2013,08,15,19,34,17.90
2013,08,15,19,36,17.90
2013,08,15,19,37,17.90
2013,08,15,19,38,17.90
2013,08,15,19,39,17.90
2013,08,15,19,41,17.90
2013,08,15,19,42,17.90
2013,08,15,19,43,18.00
2013,08,15,19,45,18.00
2013,08,15,19,46,18.00
2013,08,15,19,47,18.00
2013,08,15,19,48,17.90
2013,08,15,19,49,17.90
2013,08,15,19,51,17.90
2013,08,15,19,52,17.90
2013,08,15,19,54,17.90
2013,08,15,19,55,17.90
2013,08,15,19,56,17.90
2013,08,15,19,57,17.90
2013,08,15,19,58,17.90
2013,08,15,20,00,17.90
2013,08,15,20,01,17.90
2013,08,15,20,02,17.90
2013,08,15,20,03,17.90
2013,08,15,20,04,17.90
2013,08,15,20,06,17.90
2013,08,15,20,07,17.90
2013,08,15,20,08,17.80
2013,08,15,20,09,17.80
2013,08,15,20,11,17.80
2013,08,15,20,12,17.80
2013,08,15,20,13,17.70
2013,08,15,20,14,17.70
2013,08,15,20,16,17.70
2013,08,15,20,17,17.70
2013,08,15,20,18,17.60
2013,08,15,20,19,17.60
2013,08,15,20,21,17.50
2013,08,15,20,22,17.40
2013,08,15,20,23,17.40
2013,08,15,20,24,17.30
2013,08,15,20,26,17.20